Zurück zum Katalog

COSMOS 1861

AktivNavigationPO
NORAD 18129·PAYLOAD·🇷🇺 Russia

Gestartet Jun 23, 1987 von Plesetsk Cosmodrome

Loading…

Nächste Überflüge (nächste 24 Stunden)

TLE

AktuellSource: Space-Track

Epoche: Sep 14, 2026, 00:36 UTC

1 18129U 87054A   26257.02507191  .00000029  00000-0  14606-4 0  9994
2 18129  82.9211 257.0532 0013005  69.5383 313.1011 13.73272846965736

Verfolge COSMOS 1861 in Echtzeit mit AllMySat

Download on the App Store